Regional Weather Roundup
Issued by NWS

Home | Current Version | Previous Version | Text Only | Print | Product List | Glossary Off
Versions: 1 2 3 4 5 6 7 8 9 10 11 12 13 14 15 16 17 18 19 20 21 22 23 24 25 26 27 28 29 30 31 32 33 34 35 36 37 38 39 40 41 42 43 44 45 46 47 48 49 50

065
ASUS43 KBIS 250531
RWRND
NORTH DAKOTA REGIONAL WEATHER ROUNDUP
NATIONAL WEATHER SERVICE EASTERN NORTH DAKOTA/GRAND FORKS ND
1200 AM CDT WED APR 25 2018

  NOTE: "FAIR" INDICATES FEW OR NO CLOUDS BELOW 12,000 FEET WITH NO
  SIGNIFICANT WEATHER AND/OR OBSTRUCTIONS TO VISIBILITY.

NDZ001>003-009>011-017-250600-
...NORTHWEST NORTH DAKOTA...

CITY           SKY/WX    TMP DP  RH WIND       PRES   REMARKS
WILLISTON      FAIR      45  33  63 SW6       30.25F
MINOT          FAIR      48  24  39 SW9       30.25F
MINOT AFB      FAIR      43  26  50 SW12      30.23F
$$

NDZ018>021-031>035-040>046-250600-
...SOUTHWEST NORTH DAKOTA...

CITY           SKY/WX    TMP DP  RH WIND       PRES   REMARKS
BISMARCK       FAIR      41  27  57 CALM      30.33F
DICKINSON      FAIR      39  27  62 SW10      30.31F WCI  32
GARRISON         N/A     37  27  67 S5        30.29F WCI  33
HETTINGER      FAIR      33  25  72 W3        30.37F
$$

NDZ004>008-012>016-024-026-027-054-250600-
...NORTHEAST NORTH DAKOTA...

CITY           SKY/WX    TMP DP  RH WIND       PRES   REMARKS
GRAND FORKS    FAIR      31  29  92 S8        30.31F WCI  23
GRAND FORKS AF FAIR      33  28  83 S7        30.30F WCI  26
DEVILS LAKE    FAIR      36  28  73 CALM      30.30F
$$

NDZ022-023-025-028>030-036>039-047>053-250600-
...SOUTHEAST NORTH DAKOTA...

CITY           SKY/WX    TMP DP  RH WIND       PRES   REMARKS
JAMESTOWN      FAIR      34  29  82 S5        30.32F WCI  30
FARGO          FAIR      37  28  70 CALM      30.33F
WAHPETON       FAIR      37  28  70 N7        30.32F WCI  32
$$




USA.gov is the U.S. government's official web portal to all federal, state and local government web resources and services.